This demonstration page uses our WeatherBlox Daily Observations layout. Learn more.

Left ArrowRight Arrow

40.92945, -100.16068

Hourly Observations for November 18, 2015

Temp ( °F °C ) Dew Point ( °F °C ) Humidity (%) Winds ( mph kmh ) Pressure ( in mb ) Visibility ( mi km ) Precip ( " mm )
12:15 am 00:15 Cloudy with Light Snow 33 0.5 32 -0.1 96 96 NW 14 22 29.56 1001 3 5 0.03 0.76
12:35 am 00:35 Cloudy with Light Snow 33 0.4 32 -0.2 96 96 NW 14 22 29.53 1000 2 3 0.05 1.27
12:55 am 00:55 Cloudy with Light Snow 33 0.3 32 -0.2 96 96 NW 15 24 29.53 1000 2 2 0.07 1.78
1:15 am 01:15 Cloudy with Snow 33 0.3 31 -0.3 96 96 NW 13 20 29.53 1000 1 2 0.02 0.51
1:35 am 01:35 Cloudy with Light Snow 33 0.5 32 -0.2 95 95 NW 13 20 29.50 999 2 3 0.03 0.76
1:55 am 01:55 Cloudy with Light Snow 33 0.8 31 -0.5 91 91 NNW 15 24 29.50 999 3 5 0.04 1.02
2:15 am 02:15 Windy with Snow Likely 34 1.2 30 -1 85 85 NNW 20 31 29.50 999 7 11 0.01 0.25
2:35 am 02:35 Cloudy with Light Snow 35 1.7 29 -1.7 78 78 NW 17 28 29.44 997 5 8 0.02 0.51
2:55 am 02:55 Cloudy with Light Snow 35 1.7 29 -1.6 79 79 NW 14 22 29.44 997 10 16 0.02 0.51
3:15 am 03:15 Cloudy 35 1.6 29 -1.5 80 80 NW 8 13 29.44 997 10 16 0.01 0.25
3:35 am 03:35 Cloudy with Light Snow 34 1.3 31 -0.8 86 86 W 12 19 29.44 997 7 11 0.02 0.51
3:55 am 03:55 Cloudy with Light Snow 34 1.2 31 -0.8 87 87 WNW 9 15 29.44 997 5 8 0.04 1.02
4:15 am 04:15 Cloudy 34 1.3 29 -1.5 82 82 W 9 15 29.44 997 10 16 0.01 0.25
4:35 am 04:35 Cloudy 34 1.1 28 -2 80 80 WNW 8 13 29.44 997 10 16 0.01 0.25
4:55 am 04:55 Cloudy 34 0.9 28 -2.5 78 78 WNW 9 15 29.44 997 10 16 0.02 0.51
5:15 am 05:15 Mostly Cloudy 33 0.3 27 -2.6 81 81 WNW 7 11 29.44 997 10 16 N/A
5:35 am 05:35 Partly Cloudy 31 -0.7 26 -3.6 81 81 WNW 8 13 29.44 997 10 16 0.01 0.25
5:55 am 05:55 Clear 29 -1.4 25 -4 83 83 WNW 7 11 29.44 997 10 16 0.01 0.25
6:15 am 06:15 Clear 29 -1.8 24 -4.2 84 84 WNW 9 15 29.44 997 10 16 N/A
6:35 am 06:35 Clear 28 -2.2 24 -4.7 83 83 WNW 9 15 29.44 997 10 16 N/A
6:55 am 06:55 Clear 28 -2.2 24 -4.6 84 84 W 8 13 29.44 997 10 16 N/A
7:15 am 07:15 Clear 27 -3 23 -5.2 85 85 N N/A 29.47 998 10 16 N/A
7:35 am 07:35 Sunny 25 -3.9 22 -5.8 87 87 WNW 5 7 29.47 998 10 16 N/A
7:55 am 07:55 Sunny 25 -3.7 23 -5.2 89 89 W 3 6 29.47 998 10 16 N/A
8:15 am 08:15 Sunny 28 -2.5 24 -4.4 87 87 N N/A 29.44 997 10 16 N/A
8:35 am 08:35 Sunny 27 -2.6 24 -4.6 86 86 WSW 3 6 29.47 998 10 16 N/A
8:55 am 08:55 Sunny 30 -1.1 26 -3.6 83 83 W 3 6 29.44 997 10 16 N/A
9:15 am 09:15 Sunny 32 0.2 27 -2.7 81 81 W 7 11 29.44 997 10 16 N/A
9:35 am 09:35 Sunny 36 2 28 -2 75 75 W 5 7 29.41 996 10 16 N/A
9:55 am 09:55 Sunny 35 1.8 29 -1.6 78 78 W 3 6 29.41 996 10 16 N/A
10:15 am 10:15 Sunny 37 3 31 -0.5 78 78 WSW 6 9 29.41 996 10 16 N/A
10:35 am 10:35 Sunny 37 2.8 32 undefined 82 82 SW 6 9 29.41 996 10 16 N/A
10:55 am 10:55 Mostly Cloudy 38 3.2 33 0.5 83 83 SW 8 13 29.41 996 10 16 N/A
11:15 am 11:15 Cloudy 39 3.7 33 0.6 80 80 W 9 15 29.38 995 10 16 N/A
11:35 am 11:35 Cloudy 39 4 34 1 81 81 W 10 17 29.38 995 10 16 N/A
11:55 am 11:55 Cloudy 41 5 34 1.3 77 77 W 12 19 29.38 995 10 16 N/A
12:15 pm 12:15 Cloudy 41 5.1 35 1.7 79 79 W 9 15 29.38 995 10 16 N/A
12:35 pm 12:35 Mostly Cloudy 42 5.3 36 2 80 80 W 10 17 29.38 995 10 16 N/A
12:55 pm 12:55 Mostly Cloudy with Drizzle 43 6.2 37 2.5 77 77 W 12 19 29.41 996 10 16 N/A
1:15 pm 13:15 Cloudy with Drizzle 44 6.6 38 3.4 80 80 W 12 19 29.41 996 10 16 N/A
1:35 pm 13:35 Cloudy with Light Rain 43 6.2 38 3.5 83 83 WNW 16 26 29.44 997 10 16 N/A
1:55 pm 13:55 Cloudy 45 7.1 39 3.7 79 79 W 15 24 29.44 997 10 16 N/A
2:15 pm 14:15 Cloudy 47 8.6 39 4 73 73 WNW 21 33 29.44 997 10 16 N/A
2:35 pm 14:35 Cloudy 48 9.1 38 3.6 69 69 NW 18 30 29.44 997 10 16 N/A
2:55 pm 14:55 Mostly Cloudy 48 9 40 4.3 73 73 WNW 10 17 29.44 997 10 16 N/A
3:15 pm 15:15 Mostly Cloudy 48 8.7 41 5 78 78 NW 8 13 29.47 998 10 16 N/A
3:35 pm 15:35 Partly Cloudy 52 11.1 42 5.5 69 69 NW 8 13 29.50 999 10 16 N/A
3:55 pm 15:55 Partly Cloudy 51 10.4 42 5.7 73 73 NW 5 7 29.50 999 10 16 N/A
4:15 pm 16:15 Mostly Cloudy 49 9.3 42 5.5 77 77 WNW 5 7 29.53 1000 10 16 N/A
4:35 pm 16:35 Mostly Cloudy 48 8.9 43 5.9 82 82 WNW 7 11 29.59 1002 10 16 N/A
4:55 pm 16:55 Cloudy 48 9 42 5.6 79 79 NW 13 20 29.62 1003 10 16 N/A
5:15 pm 17:15 Cloudy 48 9 39 3.7 70 70 NNW 15 24 29.65 1004 10 16 N/A
5:35 pm 17:35 Cloudy 46 8 38 3.5 74 74 NW 9 15 29.65 1004 10 16 N/A
5:55 pm 17:55 Cloudy 46 7.5 39 4 79 79 WNW 8 13 29.68 1005 10 16 N/A
6:15 pm 18:15 Cloudy 46 7.5 38 3.3 75 75 NW 13 20 29.71 1006 10 16 N/A
6:35 pm 18:35 Cloudy 45 7.2 31 -0.4 59 59 NNW 25 41 29.77 1008 10 16 N/A
6:55 pm 18:55 Cloudy 44 6.5 30 -1 59 59 NNW 28 44 29.80 1009 10 16 N/A
7:15 pm 19:15 Cloudy 43 6 31 -0.7 62 62 NNW 21 33 29.80 1009 10 16 N/A
7:35 pm 19:35 Cloudy 42 5.8 30 -1.2 61 61 NW 22 35 29.83 1010 10 16 N/A
7:55 pm 19:55 Cloudy 41 5.2 28 -2.1 60 60 NNW 28 44 29.88 1012 10 16 N/A
8:15 pm 20:15 Cloudy 40 4.7 28 -2.4 60 60 NW 18 30 29.91 1013 10 16 N/A
8:35 pm 20:35 Mostly Cloudy 39 3.9 28 -2 66 66 NNW 15 24 29.91 1013 10 16 N/A
8:55 pm 20:55 Cloudy 39 3.7 28 -2.3 65 65 NW 16 26 29.94 1014 10 16 N/A
9:15 pm 21:15 Mostly Cloudy 37 3 27 -2.6 67 67 NW 14 22 29.97 1015 10 16 N/A
9:35 pm 21:35 Clear 36 2.4 28 -2.5 70 70 NW 14 22 30.00 1016 10 16 N/A
9:55 pm 21:55 Clear 36 2.2 26 -3.1 68 68 NW 12 19 30.03 1017 10 16 N/A
10:15 pm 22:15 Clear 35 1.6 28 -2.5 74 74 WNW 12 19 30.06 1018 10 16 N/A
10:35 pm 22:35 Clear 34 1.3 28 -2.1 78 78 WNW 9 15 30.06 1018 10 16 N/A
10:55 pm 22:55 Clear 35 1.6 28 -2.5 74 74 W 9 15 30.06 1018 10 16 N/A
11:15 pm 23:15 Clear 34 1.2 27 -3 74 74 WNW 12 19 30.09 1019 10 16 N/A
11:35 pm 23:35 Clear 33 0.5 26 -3.1 77 77 WNW 12 19 30.09 1019 10 16 N/A
11:55 pm 23:55 Clear 33 0.7 26 -3.5 74 74 NW 13 20 30.09 1019 10 16 N/A

Powered by AerisWeather